Manila, Philippines

4:52 AM +08 on October 24, 2017 (GMT +0800)
Ninoy Aquino International

Weather History for RPLL - October, 2017

Change the Weather History Date:

Thursday, October 12, 2017

  Actual Average Record
Temperature  
Mean Temperature 84 °F -  
Max Temperature 88 °F 86 °F 92 °F (2014)
Min Temperature 80 °F 75 °F 32 °F (1998)
Cooling Degree Days 19    
Growing Degree Days 34 (Base 50)    
Moisture  
Dew Point 82 °F    
Average Humidity 96    
Maximum Humidity 100    
Minimum Humidity 68    
Precipitation  
Precipitation 0.12 in 0.24 in - ()
Sea Level Pressure  
Sea Level Pressure 29.60 in    
Wind  
Wind Speed 4 mph ()    
Max Wind Speed 15 mph    
Max Gust Speed -    
Visibility 5.9 miles    
Events Rain    
Averages and records for this station are not official NWS values.
T = Trace of Precipitation, MM = Missing Value Source: Averaged Metar Reports

Daily Weather History Graph

Daily Weather History Graph

Search for Another Location

Airport or City:

Trip Planner

Search our weather history database for the weather conditions in past years. The results will help you decide how hot, cold, wet, or windy it might be!

Date:

Astronomy

Oct. 12, 2017 Rise Set
Actual Time 5:46 AM +08 5:38 PM +08
Civil Twilight 5:25 AM +08 5:59 PM +08
Nautical Twilight 5:00 AM +08 6:24 PM +08
Astronomical Twilight 4:35 AM +08 6:49 PM +08
Moon 11:40 PM +08 (10/12) 11:52 AM +08 (10/12)
Length of Visible Light 12h 34m
Length of Day
11h 51m
Waning Gibbous, 54% of the Moon is Illuminated
Oct 12
Waning Gibbous
Oct 12
Last Quarter
Oct 20
New
Oct 28
First Quarter
Nov 4
Full

Hourly Weather History & Observations

Time (+08) Temp. Heat Index Dew Point Humidity Pressure Visibility Wind Dir Wind Speed Gust Speed Precip Events Conditions
12:00 AM 82.4 °F 94.0 °F 80.6 °F 94% 29.68 in 6.2 mi Calm Calm - N/A   Overcast
1:00 AM 82.4 °F 94.0 °F 80.6 °F 94% 29.65 in 6.2 mi SW 1.2 mph - N/A   Overcast
2:00 AM 81 °F - 81 °F 100% 29.62 in 6 mi South 2.2 mph - -   Haze
2:00 AM 80.6 °F 89.3 °F 80.6 °F 100% 29.62 in 6.2 mi Variable 2.3 mph - N/A   Mostly Cloudy
3:00 AM 80.6 °F 89.3 °F 80.6 °F 100% 29.62 in 5.6 mi Variable 1.2 mph - N/A   Mostly Cloudy
4:00 AM 80.6 °F 89.3 °F 80.6 °F 100% 29.62 in 5.6 mi Calm Calm - N/A   Mostly Cloudy
5:00 AM 81 °F - 81 °F 98% 29.62 in 6 mi SSW 2.2 mph - -   Haze
5:00 AM 80.6 °F 89.3 °F 80.6 °F 100% 29.62 in 6.2 mi Calm Calm - N/A   Mostly Cloudy
6:00 AM 80.6 °F 89.3 °F 80.6 °F 100% 29.62 in 6.2 mi Calm Calm - N/A   Mostly Cloudy
7:00 AM 82.4 °F 96.1 °F 82.4 °F 100% - 5.6 mi Calm Calm - N/A   Overcast
8:00 AM 83 °F - 82 °F 97% 29.65 in 6 mi SSW 4.5 mph - -   Haze
8:00 AM 84.2 °F 100.6 °F 82.4 °F 94% 29.65 in 5.6 mi SW 3.5 mph - N/A   Overcast
9:00 AM 86.0 °F 107.7 °F 84.2 °F 94% 29.65 in 6.2 mi West 4.6 mph - N/A   Mostly Cloudy
10:00 AM 86.0 °F 107.7 °F 84.2 °F 94% 29.65 in 6.2 mi West 6.9 mph - N/A   Mostly Cloudy
11:00 AM 87 °F - 78 °F 68% 29.63 in 6 mi West 6.7 mph - -   Haze
11:00 AM 86.0 °F 107.7 °F 84.2 °F 94% 29.62 in 6.2 mi West 8.1 mph - N/A   Mostly Cloudy
12:00 PM 87.8 °F 115.4 °F 86.0 °F 94% 29.59 in 6.2 mi West 9.2 mph - N/A   Mostly Cloudy
1:00 PM 87.8 °F 111.7 °F 84.2 °F 89% 29.56 in 6.2 mi West 11.5 mph - N/A   Mostly Cloudy
2:00 PM 87 °F - 84 °F 90% 29.55 in 6 mi WSW 13.4 mph - -   Haze
2:00 PM 87.8 °F 111.7 °F 84.2 °F 89% 29.53 in 6.2 mi WSW 13.8 mph - N/A   Mostly Cloudy
3:00 PM 87.8 °F 111.7 °F 84.2 °F 89% 29.53 in 6.2 mi West 15.0 mph - N/A   Mostly Cloudy
4:00 PM 87.8 °F 111.7 °F 84.2 °F 89% 29.53 in 6.2 mi WSW 15.0 mph - N/A   Mostly Cloudy
5:00 PM 86 °F - 85 °F 96% 29.55 in 6 mi WSW 11.2 mph - -   Haze
5:00 PM 86.0 °F 107.7 °F 84.2 °F 94% 29.53 in 6.2 mi WSW 12.7 mph - N/A   Mostly Cloudy
6:00 PM 84.2 °F 103.5 °F 84.2 °F 100% 29.56 in 6.2 mi WSW 11.5 mph - N/A   Mostly Cloudy
7:00 PM 84.2 °F 103.5 °F 84.2 °F 100% 29.56 in 6.2 mi WSW 11.5 mph - N/A   Mostly Cloudy
8:00 PM 83 °F - 83 °F 100% 29.59 in 4 mi ENE 2.2 mph - - Rain Light Rain Showers
8:00 PM 84.2 °F 103.5 °F 84.2 °F 100% 29.59 in 4.3 mi ENE 2.3 mph - N/A Rain Light Rain Showers
9:00 PM 80.6 °F 89.3 °F 80.6 °F 100% 29.59 in 3.7 mi WSW 3.5 mph - N/A Rain Light Rain
10:00 PM 80.6 °F 89.3 °F 80.6 °F 100% 29.59 in 6.2 mi WSW 5.8 mph - N/A   Mostly Cloudy
11:00 PM 81 °F - 81 °F 100% 29.59 in 6 mi WSW 4.5 mph - -   Haze
11:00 PM 80.6 °F 89.3 °F 80.6 °F 100% 29.56 in 6.2 mi WSW 5.8 mph - N/A   Mostly Cloudy